Torna al catalogo

CZ-6A DEB

AttivoPO
NORAD 61304·DEBRIS·🇨🇳 China

Lanciato Aug 6, 2024 da Taiyuan Satellite Launch Center

Loading…

Prossimi Passaggi (prossime 24 ore)

TLE

AggiornatoSource: Space-Track

Epoca: Sep 14, 2026, 11:40 UTC

1 61304U 24140TR  26257.48668936  .00001132  00000-0  27059-3 0  9990
2 61304  89.1959 279.2382 0073689 302.6177  56.7932 14.51393276108269

Traccia CZ-6A DEB in tempo reale con AllMySat

Download on the App Store